Change the Weather History Date:

Sunday, December 8, 2013

  Actual Average Record
Temperature  
Mean Temperature 23 °F -  
Max Temperature 28 °F 5 °F 44 °F (2005)
Min Temperature 18 °F -1 °F -33 °F (2012)
Degree Days  
Heating Degree Days 42    
Moisture  
Dew Point 19 °F    
Average Humidity 88    
Maximum Humidity 96    
Minimum Humidity 78    
Precipitation  
Precipitation 0.00 in - - ()
Sea Level Pressure  
Sea Level Pressure 30.40 in    
Wind  
Wind Speed 3 mph (ESE)    
Max Wind Speed 7 mph    
Max Gust Speed -    
Visibility 10 miles    
Events      
Averages and records for this station are not official NWS values.
T = Trace of Precipitation, MM = Missing Value Source: NWS Daily Summary

Daily Weather History Graph

Daily Weather History Graph

Search for Another Location

Airport or City:

Trip Planner

Search our weather history database for the weather conditions in past years. The results will help you decide how hot, cold, wet, or windy it might be!

Date:

Astronomy

Dec. 08, 2013 Rise Set
Actual Time 10:17 AM AKST 2:52 PM AKST
Civil Twilight 9:03 AM AKST 4:06 PM AKST
Nautical Twilight 7:56 AM AKST 5:13 PM AKST
Astronomical Twilight 6:57 AM AKST 6:12 PM AKST
Moon 12:41 PM AKST (12/8) No Moon Set
Length of Visible Light 7h 03m
Length of Day
4h 34m
Waxing Crescent, 41% of the Moon is Illuminated
Dec 8
Waxing Crescent
Dec 9
First Quarter
Dec 17
Full
Dec 25
Last Quarter
Jan 1
New

Hourly Weather History & Observations

Time (AKST) Temp. Windchill Dew Point Humidity Pressure Visibility Wind Dir Wind Speed Gust Speed Precip Events Conditions
12:53 AM 17.1 °F 10.0 °F 14.0 °F 88% 30.42 in 10.0 mi East 4.6 mph - N/A   Partly Cloudy
1:53 AM 19.0 °F 10.0 °F 16.0 °F 88% 30.42 in 10.0 mi ESE 6.9 mph - N/A   Overcast
2:53 AM 19.9 °F - 16.0 °F 85% 30.43 in 10.0 mi Calm Calm - N/A   Overcast
3:53 AM 19.9 °F - 16.0 °F 85% 30.43 in 10.0 mi Calm Calm - N/A   Overcast
4:53 AM 21.0 °F 14.6 °F 17.1 °F 85% 30.43 in 10.0 mi East 4.6 mph - N/A   Overcast
5:53 AM 21.9 °F - 18.0 °F 85% 30.43 in 10.0 mi Calm Calm - N/A   Overcast
6:53 AM 19.9 °F - 17.1 °F 89% 30.45 in 10.0 mi Calm Calm - N/A   Mostly Cloudy
7:53 AM 18.0 °F - 15.1 °F 88% 30.47 in 10.0 mi Calm Calm - N/A   Mostly Cloudy
8:53 AM 19.0 °F 13.9 °F 16.0 °F 88% 30.46 in 10.0 mi South 3.5 mph - N/A   Mostly Cloudy
9:53 AM 18.0 °F - 15.1 °F 88% 30.48 in 10.0 mi Calm Calm - N/A   Mostly Cloudy
10:53 AM 21.0 °F 13.4 °F 19.0 °F 92% 30.48 in 10.0 mi South 5.8 mph - N/A   Mostly Cloudy
11:53 AM 27.0 °F 20.5 °F 23.0 °F 85% 30.45 in 10.0 mi SSW 5.8 mph - N/A   Mostly Cloudy
12:53 PM 25.0 °F 20.7 °F 21.0 °F 85% 30.45 in 10.0 mi East 3.5 mph - N/A   Mostly Cloudy
1:53 PM 26.1 °F 20.5 °F 23.0 °F 88% 30.43 in 10.0 mi North 4.6 mph - N/A   Mostly Cloudy
2:53 PM 24.1 °F 19.7 °F 21.0 °F 88% 30.40 in 10.0 mi East 3.5 mph - N/A   Mostly Cloudy
3:53 PM 23.0 °F 17.0 °F 19.9 °F 88% 30.39 in 10.0 mi ESE 4.6 mph - N/A   Mostly Cloudy
4:53 PM 23.0 °F 17.0 °F 19.9 °F 88% 30.38 in 10.0 mi ESE 4.6 mph - N/A   Mostly Cloudy
5:53 PM 21.9 °F 17.2 °F 19.0 °F 89% 30.37 in 10.0 mi SE 3.5 mph - N/A   Mostly Cloudy
6:53 PM 23.0 °F - 21.0 °F 92% 30.35 in 10.0 mi Calm Calm - N/A   Mostly Cloudy
7:53 PM 23.0 °F - 19.9 °F 88% 30.34 in 10.0 mi Calm Calm - N/A   Mostly Cloudy
8:53 PM 23.0 °F - 21.0 °F 92% 30.34 in 10.0 mi Calm Calm - N/A   Mostly Cloudy
9:53 PM 23.0 °F 17.0 °F 19.9 °F 88% 30.32 in 10.0 mi South 4.6 mph - N/A   Partly Cloudy
10:42 PM 21.2 °F 16.4 °F 19.4 °F 93% 30.20 in 10.0 mi NNW 3.5 mph - N/A   Partly Cloudy
10:53 PM 23.0 °F 18.4 °F 21.9 °F 96% 30.29 in 10.0 mi ENE 3.5 mph - N/A   Partly Cloudy
11:53 PM 21.9 °F 17.2 °F 19.9 °F 92% 30.28 in 10.0 mi SE 3.5 mph - N/A   Scattered Clouds